Time,TemperatureF,DewpointF,PressureIn,WindDirection,WindDirectionDegrees,WindSpeedMPH,WindSpeedGustMPH,Humidity,HourlyPrecipIn,Conditions,Clouds,dailyrainin,SoftwareType,DateUTC
2013-03-14 00:00:00,30.4,-5.9,29.59,WNW,291,5.4,6.3,20,0.00,,,0.00,VWS V13.01,2013-03-14 04:00:00,
2013-03-14 00:05:00,30.2,-6.0,29.59,West,281,5.8,8.7,20,0.00,,,0.00,VWS V13.01,2013-03-14 04:05:00,
2013-03-14 00:10:00,30.2,-6.0,29.59,WNW,298,8.1,8.1,20,0.00,,,0.00,VWS V13.01,2013-03-14 04:10:00,
2013-03-14 00:15:00,30.2,-6.0,29.59,NW,317,5.4,8.7,20,0.00,,,0.00,VWS V13.01,2013-03-14 04:15:00,
2013-03-14 00:20:00,30.2,-6.0,29.59,WNW,300,8.1,10.1,20,0.00,,,0.00,VWS V13.01,2013-03-14 04:20:00,
2013-03-14 00:25:00,30.0,-6.2,29.59,NW,307,2.7,8.3,20,0.00,,,0.00,VWS V13.01,2013-03-14 04:25:00,
2013-03-14 00:30:00,29.8,-6.3,29.59,NNW,348,3.1,6.3,20,0.00,,,0.00,VWS V13.01,2013-03-14 04:30:00,
2013-03-14 00:35:00,29.8,-6.3,29.62,NW,321,3.1,6.7,20,0.00,,,0.00,VWS V13.01,2013-03-14 04:35:00,
2013-03-14 00:40:00,29.7,-6.5,29.62,WNW,292,3.6,7.6,20,0.00,,,0.00,VWS V13.01,2013-03-14 04:40:00,
2013-03-14 00:45:00,29.7,-6.5,29.62,NNW,335,3.1,7.6,20,0.00,,,0.00,VWS V13.01,2013-03-14 04:45:00,
2013-03-14 00:50:00,29.5,-6.6,29.62,NW,304,6.3,6.3,20,0.00,,,0.00,VWS V13.01,2013-03-14 04:50:00,
2013-03-14 00:55:00,29.5,-6.6,29.62,NW,313,2.7,7.6,20,0.00,,,0.00,VWS V13.01,2013-03-14 04:55:00,
2013-03-14 01:00:00,29.5,-6.6,29.62,NW,307,2.7,4.0,20,0.00,,,0.00,VWS V13.01,2013-03-14 05:00:00,
2013-03-14 01:05:00,29.3,-6.8,29.62,WNW,299,3.1,4.0,20,0.00,,,0.00,VWS V13.01,2013-03-14 05:05:00,
2013-03-14 01:10:00,29.1,-6.9,29.62,WNW,298,2.7,3.6,20,0.00,,,0.00,VWS V13.01,2013-03-14 05:10:00,
2013-03-14 01:15:00,28.9,-7.1,29.62,NW,308,0.0,3.6,20,0.00,,,0.00,VWS V13.01,2013-03-14 05:15:00,
2013-03-14 01:20:00,28.9,-7.1,29.62,WNW,303,3.1,4.0,20,0.00,,,0.00,VWS V13.01,2013-03-14 05:20:00,
2013-03-14 01:25:00,28.8,-7.2,29.62,WNW,300,3.1,4.0,20,0.00,,,0.00,VWS V13.01,2013-03-14 05:25:00,
2013-03-14 01:30:00,28.6,-7.4,29.62,NW,313,4.0,4.0,20,0.00,,,0.00,VWS V13.01,2013-03-14 05:30:00,
2013-03-14 01:35:00,28.6,-4.5,29.62,WNW,293,2.7,5.4,23,0.00,,,0.00,VWS V13.01,2013-03-14 05:35:00,
2013-03-14 01:40:00,28.4,-4.7,29.62,WNW,290,3.6,6.3,23,0.00,,,0.00,VWS V13.01,2013-03-14 05:40:00,
2013-03-14 01:45:00,28.4,-4.7,29.62,NW,315,4.0,4.9,23,0.00,,,0.00,VWS V13.01,2013-03-14 05:45:00,
2013-03-14 01:50:00,28.2,-4.8,29.62,NW,321,4.0,5.4,23,0.00,,,0.00,VWS V13.01,2013-03-14 05:50:00,
2013-03-14 01:55:00,28.0,-5.0,29.62,NW,307,4.0,4.0,23,0.00,,,0.00,VWS V13.01,2013-03-14 05:55:00,
2013-03-14 02:00:00,28.0,-2.4,29.62,NW,324,2.7,4.0,26,0.00,,,0.00,VWS V13.01,2013-03-14 06:00:00,
2013-03-14 02:05:00,27.9,-2.6,29.62,NNW,327,2.2,2.7,26,0.00,,,0.00,VWS V13.01,2013-03-14 06:05:00,
2013-03-14 02:10:00,27.9,-2.6,29.62,NW,319,2.2,4.9,26,0.00,,,0.00,VWS V13.01,2013-03-14 06:10:00,
2013-03-14 02:15:00,27.9,-2.6,29.62,NW,316,0.0,3.1,26,0.00,,,0.00,VWS V13.01,2013-03-14 06:15:00,
2013-03-14 02:20:00,27.7,-2.7,29.62,NW,311,2.2,4.0,26,0.00,,,0.00,VWS V13.01,2013-03-14 06:20:00,
2013-03-14 02:25:00,27.5,-2.9,29.62,NW,311,2.7,3.1,26,0.00,,,0.00,VWS V13.01,2013-03-14 06:25:00,
2013-03-14 02:30:00,27.5,-2.9,29.62,NW,324,2.7,3.6,26,0.00,,,0.00,VWS V13.01,2013-03-14 06:30:00,
2013-03-14 02:35:00,27.5,-2.9,29.62,NW,320,2.7,4.0,26,0.00,,,0.00,VWS V13.01,2013-03-14 06:35:00,
2013-03-14 02:40:00,27.3,-1.5,29.62,NW,323,0.0,2.7,28,0.00,,,0.00,VWS V13.01,2013-03-14 06:40:00,
2013-03-14 02:45:00,27.1,-1.6,29.62,NW,307,3.1,3.1,28,0.00,,,0.00,VWS V13.01,2013-03-14 06:45:00,
2013-03-14 02:50:00,27.1,-1.6,29.62,WNW,294,0.0,3.1,28,0.00,,,0.00,VWS V13.01,2013-03-14 06:50:00,
2013-03-14 02:55:00,27.1,-1.6,29.62,NW,316,3.1,5.4,28,0.00,,,0.00,VWS V13.01,2013-03-14 06:55:00,
2013-03-14 03:00:00,27.0,-1.8,29.62,NW,317,2.2,3.1,28,0.00,,,0.00,VWS V13.01,2013-03-14 07:00:00,
2013-03-14 03:05:00,27.0,-1.8,29.62,NW,316,3.1,3.1,28,0.00,,,0.00,VWS V13.01,2013-03-14 07:05:00,
2013-03-14 03:10:00,27.0,0.4,29.62,NW,325,2.2,2.7,31,0.00,,,0.00,VWS V13.01,2013-03-14 07:10:00,
2013-03-14 03:15:00,26.8,0.2,29.62,NNW,334,2.2,2.7,31,0.00,,,0.00,VWS V13.01,2013-03-14 07:15:00,
2013-03-14 03:20:00,26.6,0.1,29.62,NW,323,2.2,3.1,31,0.00,,,0.00,VWS V13.01,2013-03-14 07:20:00,
2013-03-14 03:25:00,26.6,0.1,29.62,NNW,330,2.2,2.7,31,0.00,,,0.00,VWS V13.01,2013-03-14 07:25:00,
2013-03-14 03:30:00,26.4,-0.1,29.62,NNW,330,0.0,2.2,31,0.00,,,0.00,VWS V13.01,2013-03-14 07:30:00,
2013-03-14 03:35:00,26.2,-0.3,29.62,NNW,330,0.0,0.0,31,0.00,,,0.00,VWS V13.01,2013-03-14 07:35:00,
2013-03-14 03:40:00,26.1,-0.4,29.62,NNW,330,0.0,0.0,31,0.00,,,0.00,VWS V13.01,2013-03-14 07:40:00,
2013-03-14 03:45:00,25.9,-0.6,29.62,NNW,330,0.0,0.0,31,0.00,,,0.00,VWS V13.01,2013-03-14 07:45:00,
2013-03-14 03:50:00,26.1,0.2,29.62,NNW,332,0.0,2.7,32,0.00,,,0.00,VWS V13.01,2013-03-14 07:50:00,
2013-03-14 03:55:00,26.1,0.2,29.62,NNW,332,0.0,2.2,32,0.00,,,0.00,VWS V13.01,2013-03-14 07:55:00,
2013-03-14 04:00:00,26.1,0.2,29.62,NW,325,2.2,3.1,32,0.00,,,0.00,VWS V13.01,2013-03-14 08:00:00,
2013-03-14 04:05:00,26.1,0.2,29.62,NW,326,0.0,0.0,32,0.00,,,0.00,VWS V13.01,2013-03-14 08:05:00,
2013-03-14 04:10:00,26.1,0.2,29.62,NW,326,0.0,2.2,32,0.00,,,0.00,VWS V13.01,2013-03-14 08:10:00,
2013-03-14 04:15:00,26.1,0.2,29.62,NW,326,0.0,0.0,32,0.00,,,0.00,VWS V13.01,2013-03-14 08:15:00,
2013-03-14 04:20:00,26.1,0.2,29.62,NW,326,0.0,0.0,32,0.00,,,0.00,VWS V13.01,2013-03-14 08:20:00,
2013-03-14 04:25:00,25.9,0.1,29.62,NW,326,0.0,0.0,32,0.00,,,0.00,VWS V13.01,2013-03-14 08:25:00,
2013-03-14 04:30:00,25.7,-0.1,29.62,NW,326,0.0,0.0,32,0.00,,,0.00,VWS V13.01,2013-03-14 08:30:00,
2013-03-14 04:35:00,25.7,-0.1,29.62,North,357,2.7,2.7,32,0.00,,,0.00,VWS V13.01,2013-03-14 08:35:00,
2013-03-14 04:40:00,25.7,-0.1,29.62,NW,318,3.1,3.6,32,0.00,,,0.00,VWS V13.01,2013-03-14 08:40:00,
2013-03-14 04:45:00,25.7,0.6,29.62,NNW,331,4.0,6.3,33,0.00,,,0.00,VWS V13.01,2013-03-14 08:45:00,
2013-03-14 04:50:00,25.7,0.6,29.62,North,5,2.7,4.0,33,0.00,,,0.00,VWS V13.01,2013-03-14 08:50:00,
2013-03-14 04:55:00,25.5,0.4,29.62,NNW,348,2.2,3.6,33,0.00,,,0.00,VWS V13.01,2013-03-14 08:55:00,
2013-03-14 05:00:00,25.3,0.3,29.62,NNW,342,3.1,4.0,33,0.00,,,0.00,VWS V13.01,2013-03-14 09:00:00,
2013-03-14 05:05:00,25.3,0.9,29.62,North,357,2.7,3.1,34,0.00,,,0.00,VWS V13.01,2013-03-14 09:05:00,
2013-03-14 05:10:00,25.2,0.8,29.62,North,357,3.1,3.1,34,0.00,,,0.00,VWS V13.01,2013-03-14 09:10:00,
2013-03-14 05:15:00,25.2,0.8,29.62,NNW,341,3.6,3.6,34,0.00,,,0.00,VWS V13.01,2013-03-14 09:15:00,
2013-03-14 05:20:00,25.2,1.4,29.62,North,357,3.6,4.5,35,0.00,,,0.00,VWS V13.01,2013-03-14 09:20:00,
2013-03-14 05:25:00,25.2,2.0,29.62,North,357,4.0,4.0,36,0.00,,,0.00,VWS V13.01,2013-03-14 09:25:00,
2013-03-14 05:30:00,25.2,2.0,29.62,North,0,4.5,5.4,36,0.00,,,0.00,VWS V13.01,2013-03-14 09:30:00,
2013-03-14 05:35:00,25.2,2.0,29.62,North,353,5.4,5.4,36,0.00,,,0.00,VWS V13.01,2013-03-14 09:35:00,
2013-03-14 05:40:00,25.2,2.0,29.62,NNW,338,3.6,5.4,36,0.00,,,0.00,VWS V13.01,2013-03-14 09:40:00,
2013-03-14 05:45:00,25.0,1.8,29.62,North,0,3.6,3.6,36,0.00,,,0.00,VWS V13.01,2013-03-14 09:45:00,
2013-03-14 05:50:00,25.0,1.8,29.62,North,357,4.0,4.5,36,0.00,,,0.00,VWS V13.01,2013-03-14 09:50:00,
2013-03-14 05:55:00,25.0,2.4,29.62,North,353,4.0,4.0,37,0.00,,,0.00,VWS V13.01,2013-03-14 09:55:00,
2013-03-14 06:00:00,25.0,2.4,29.62,North,357,3.6,4.0,37,0.00,,,0.00,VWS V13.01,2013-03-14 10:00:00,
2013-03-14 06:05:00,25.0,1.8,29.62,North,357,3.6,4.0,36,0.00,,,0.00,VWS V13.01,2013-03-14 10:05:00,
2013-03-14 06:10:00,24.8,2.2,29.62,North,357,3.6,4.9,37,0.00,,,0.00,VWS V13.01,2013-03-14 10:10:00,
2013-03-14 06:15:00,25.0,1.8,29.62,North,0,2.7,3.6,36,0.00,,,0.00,VWS V13.01,2013-03-14 10:15:00,
2013-03-14 06:20:00,25.0,1.8,29.62,North,6,3.1,4.0,36,0.00,,,0.00,VWS V13.01,2013-03-14 10:20:00,
2013-03-14 06:25:00,25.0,1.8,29.62,North,349,3.6,4.0,36,0.00,,,0.00,VWS V13.01,2013-03-14 10:25:00,
2013-03-14 06:30:00,25.0,1.2,29.62,North,10,2.7,4.0,35,0.00,,,0.00,VWS V13.01,2013-03-14 10:30:00,
2013-03-14 06:35:00,25.0,1.2,29.62,NNE,17,4.0,4.0,35,0.00,,,0.00,VWS V13.01,2013-03-14 10:35:00,
2013-03-14 06:40:00,25.0,1.2,29.62,North,7,2.7,4.0,35,0.00,,,0.00,VWS V13.01,2013-03-14 10:40:00,
2013-03-14 06:45:00,25.2,0.8,29.62,North,353,2.2,4.0,34,0.00,,,0.00,VWS V13.01,2013-03-14 10:45:00,
2013-03-14 06:50:00,25.0,0.6,29.65,North,357,2.7,3.1,34,0.00,,,0.00,VWS V13.01,2013-03-14 10:50:00,
2013-03-14 06:55:00,25.0,0.6,29.65,NNW,334,2.7,3.6,34,0.00,,,0.00,VWS V13.01,2013-03-14 10:55:00,
2013-03-14 07:00:00,25.0,0.6,29.65,North,7,2.7,3.6,34,0.00,,,0.00,VWS V13.01,2013-03-14 11:00:00,
2013-03-14 07:05:00,25.0,0.6,29.65,North,0,2.2,3.1,34,0.00,,,0.00,VWS V13.01,2013-03-14 11:05:00,
2013-03-14 07:10:00,25.0,0.6,29.65,North,0,2.2,2.7,34,0.00,,,0.00,VWS V13.01,2013-03-14 11:10:00,
2013-03-14 07:15:00,24.8,0.4,29.65,North,0,0.0,2.2,34,0.00,,,0.00,VWS V13.01,2013-03-14 11:15:00,
2013-03-14 07:20:00,24.6,0.3,29.62,North,0,0.0,0.0,34,0.00,,,0.00,VWS V13.01,2013-03-14 11:20:00,
2013-03-14 07:25:00,24.4,0.1,29.62,North,0,0.0,0.0,34,0.00,,,0.00,VWS V13.01,2013-03-14 11:25:00,
2013-03-14 07:30:00,24.4,0.1,29.62,North,0,0.0,2.7,34,0.00,,,0.00,VWS V13.01,2013-03-14 11:30:00,
2013-03-14 07:35:00,24.4,0.7,29.62,North,0,0.0,2.2,35,0.00,,,0.00,VWS V13.01,2013-03-14 11:35:00,
2013-03-14 07:40:00,24.6,0.9,29.62,North,7,0.0,3.1,35,0.00,,,0.00,VWS V13.01,2013-03-14 11:40:00,
2013-03-14 07:45:00,24.6,0.9,29.62,North,7,0.0,2.2,35,0.00,,,0.00,VWS V13.01,2013-03-14 11:45:00,
2013-03-14 07:50:00,24.6,0.3,29.62,North,7,0.0,0.0,34,0.00,,,0.00,VWS V13.01,2013-03-14 11:50:00,
2013-03-14 07:55:00,24.6,0.3,29.62,North,7,0.0,0.0,34,0.00,,,0.00,VWS V13.01,2013-03-14 11:55:00,
2013-03-14 08:00:00,24.4,0.1,29.62,North,7,0.0,0.0,34,0.00,,,0.00,VWS V13.01,2013-03-14 12:00:00,
2013-03-14 08:05:00,24.1,-0.2,29.62,North,7,0.0,0.0,34,0.00,,,0.00,VWS V13.01,2013-03-14 12:05:00,
2013-03-14 08:10:00,23.5,-0.7,29.62,North,7,0.0,0.0,34,0.00,,,0.00,VWS V13.01,2013-03-14 12:10:00,
2013-03-14 08:15:00,23.5,-0.7,29.62,North,7,0.0,0.0,34,0.00,,,0.00,VWS V13.01,2013-03-14 12:15:00,
2013-03-14 08:20:00,23.7,0.1,29.62,North,7,0.0,0.0,35,0.00,,,0.00,VWS V13.01,2013-03-14 12:20:00,
2013-03-14 08:25:00,23.9,0.2,29.62,North,7,0.0,2.2,35,0.00,,,0.00,VWS V13.01,2013-03-14 12:25:00,
2013-03-14 08:30:00,24.1,0.4,29.62,North,7,0.0,0.0,35,0.00,,,0.00,VWS V13.01,2013-03-14 12:30:00,
2013-03-14 08:35:00,24.4,1.3,29.62,North,7,0.0,2.2,36,0.00,,,0.00,VWS V13.01,2013-03-14 12:35:00,
2013-03-14 08:40:00,25.0,1.8,29.62,North,5,2.7,4.0,36,0.00,,,0.00,VWS V13.01,2013-03-14 12:40:00,
2013-03-14 08:45:00,25.3,1.5,29.62,North,0,0.0,3.1,35,0.00,,,0.00,VWS V13.01,2013-03-14 12:45:00,
2013-03-14 08:50:00,25.7,1.2,29.65,North,353,0.0,2.7,34,0.00,,,0.00,VWS V13.01,2013-03-14 12:50:00,
2013-03-14 08:55:00,25.9,1.4,29.65,NNW,342,2.2,3.1,34,0.00,,,0.00,VWS V13.01,2013-03-14 12:55:00,
2013-03-14 09:00:00,26.1,1.5,29.65,North,353,2.7,4.0,34,0.00,,,0.00,VWS V13.01,2013-03-14 13:00:00,
2013-03-14 09:05:00,26.1,0.2,29.65,North,0,2.7,4.9,32,0.00,,,0.00,VWS V13.01,2013-03-14 13:05:00,
2013-03-14 09:10:00,26.2,0.4,29.65,North,8,2.7,4.0,32,0.00,,,0.00,VWS V13.01,2013-03-14 13:10:00,
2013-03-14 09:15:00,26.4,-0.1,29.65,North,0,4.0,4.9,31,0.00,,,0.00,VWS V13.01,2013-03-14 13:15:00,
2013-03-14 09:20:00,26.6,0.1,29.65,North,3,2.7,4.0,31,0.00,,,0.00,VWS V13.01,2013-03-14 13:20:00,
2013-03-14 09:25:00,26.8,-1.9,29.65,North,0,2.7,4.0,28,0.00,,,0.00,VWS V13.01,2013-03-14 13:25:00,
2013-03-14 09:30:00,27.0,-1.8,29.65,WNW,299,3.1,5.4,28,0.00,,,0.00,VWS V13.01,2013-03-14 13:30:00,
2013-03-14 09:35:00,27.3,-1.5,29.65,West,279,2.7,3.6,28,0.00,,,0.00,VWS V13.01,2013-03-14 13:35:00,
2013-03-14 09:40:00,27.7,-1.2,29.65,WSW,253,2.2,3.1,28,0.00,,,0.00,VWS V13.01,2013-03-14 13:40:00,
2013-03-14 09:45:00,28.0,-0.9,29.65,NW,325,2.7,4.9,28,0.00,,,0.00,VWS V13.01,2013-03-14 13:45:00,
2013-03-14 09:50:00,28.4,-0.5,29.65,NW,311,3.1,4.0,28,0.00,,,0.00,VWS V13.01,2013-03-14 13:50:00,
2013-03-14 09:55:00,28.8,-0.2,29.65,NNW,341,3.1,3.6,28,0.00,,,0.00,VWS V13.01,2013-03-14 13:55:00,
2013-03-14 10:00:00,29.1,-2.3,29.65,WNW,295,3.1,4.0,25,0.00,,,0.00,VWS V13.01,2013-03-14 14:00:00,
2013-03-14 10:05:00,29.5,-2.0,29.65,NW,312,3.6,4.9,25,0.00,,,0.00,VWS V13.01,2013-03-14 14:05:00,
2013-03-14 10:11:00,30.0,-1.5,29.65,WNW,292,3.6,3.6,25,0.00,,,0.00,VWS V13.01,2013-03-14 14:11:00,
2013-03-14 10:16:00,30.2,-3.1,29.65,NNW,331,4.0,4.0,23,0.00,,,0.00,VWS V13.01,2013-03-14 14:16:00,
2013-03-14 10:21:00,30.6,-2.8,29.65,WNW,292,2.7,2.7,23,0.00,,,0.00,VWS V13.01,2013-03-14 14:21:00,
2013-03-14 10:27:00,31.1,-2.4,29.65,West,266,0.0,3.6,23,0.00,,,0.00,VWS V13.01,2013-03-14 14:27:00,
2013-03-14 10:32:00,31.5,-5.0,29.65,West,261,2.7,4.5,20,0.00,,,0.00,VWS V13.01,2013-03-14 14:32:00,
2013-03-14 10:37:00,31.6,-4.8,29.62,West,263,2.2,4.0,20,0.00,,,0.00,VWS V13.01,2013-03-14 14:37:00,
2013-03-14 10:42:00,31.8,-4.7,29.62,WNW,298,3.6,4.0,20,0.00,,,0.00,VWS V13.01,2013-03-14 14:42:00,
2013-03-14 10:47:00,32.2,-4.4,29.62,NW,312,3.6,3.6,20,0.00,,,0.00,VWS V13.01,2013-03-14 14:47:00,
2013-03-14 10:52:00,32.4,-4.2,29.65,West,264,0.0,2.7,20,0.00,,,0.00,VWS V13.01,2013-03-14 14:52:00,
2013-03-14 10:57:00,32.5,-4.1,29.65,WNW,290,4.9,6.3,20,0.00,,,0.00,VWS V13.01,2013-03-14 14:57:00,
2013-03-14 11:02:00,32.9,-3.8,29.65,NW,320,5.8,5.8,20,0.00,,,0.00,VWS V13.01,2013-03-14 15:02:00,
2013-03-14 11:07:00,33.4,-3.3,29.62,West,268,8.1,8.1,20,0.00,,,0.00,VWS V13.01,2013-03-14 15:07:00,
2013-03-14 11:12:00,33.1,-5.8,29.62,West,280,4.9,4.9,18,0.00,,,0.00,VWS V13.01,2013-03-14 15:12:00,
2013-03-14 11:17:00,33.8,-6.4,29.62,West,275,5.4,5.4,17,0.00,,,0.00,VWS V13.01,2013-03-14 15:17:00,
2013-03-14 11:22:00,34.2,-6.1,29.62,West,278,5.4,8.1,17,0.00,,,0.00,VWS V13.01,2013-03-14 15:22:00,
2013-03-14 11:27:00,34.0,-6.2,29.62,SW,227,2.7,2.7,17,0.00,,,0.00,VWS V13.01,2013-03-14 15:27:00,
2013-03-14 11:32:00,34.2,-6.1,29.62,WNW,293,2.7,3.6,17,0.00,,,0.00,VWS V13.01,2013-03-14 15:32:00,
2013-03-14 11:37:00,34.3,-5.9,29.62,NW,317,3.1,4.9,17,0.00,,,0.00,VWS V13.01,2013-03-14 15:37:00,
2013-03-14 11:42:00,34.5,-5.8,29.62,West,278,3.1,8.1,17,0.00,,,0.00,VWS V13.01,2013-03-14 15:42:00,
2013-03-14 11:47:00,35.1,-5.3,29.62,WSW,257,4.9,5.8,17,0.00,,,0.00,VWS V13.01,2013-03-14 15:47:00,
2013-03-14 11:52:00,35.2,-5.2,29.62,SW,229,5.8,8.1,17,0.00,,,0.00,VWS V13.01,2013-03-14 15:52:00,
2013-03-14 11:57:00,35.1,-5.3,29.62,WSW,258,3.1,5.4,17,0.00,,,0.00,VWS V13.01,2013-03-14 15:57:00,
2013-03-14 12:02:00,35.2,-5.2,29.62,WNW,294,5.8,6.7,17,0.00,,,0.00,VWS V13.01,2013-03-14 16:02:00,
2013-03-14 12:07:00,35.6,-4.9,29.62,WNW,302,6.3,8.1,17,0.00,,,0.00,VWS V13.01,2013-03-14 16:07:00,
2013-03-14 12:12:00,35.8,-4.8,29.62,NNW,337,5.4,8.3,17,0.00,,,0.00,VWS V13.01,2013-03-14 16:12:00,
2013-03-14 12:17:00,35.8,-4.8,29.62,SW,232,5.8,8.7,17,0.00,,,0.00,VWS V13.01,2013-03-14 16:17:00,
2013-03-14 12:22:00,36.3,-4.3,29.62,NW,305,5.4,9.2,17,0.00,,,0.00,VWS V13.01,2013-03-14 16:22:00,
2013-03-14 12:27:00,36.1,-4.5,29.62,NW,326,11.0,11.0,17,0.00,,,0.00,VWS V13.01,2013-03-14 16:27:00,
2013-03-14 12:32:00,36.7,-4.0,29.62,WNW,292,2.7,3.6,17,0.00,,,0.00,VWS V13.01,2013-03-14 16:32:00,
2013-03-14 12:37:00,37.0,-3.7,29.62,West,280,4.9,5.4,17,0.00,,,0.00,VWS V13.01,2013-03-14 16:37:00,
2013-03-14 12:42:00,37.2,-3.6,29.62,WNW,292,2.7,5.4,17,0.00,,,0.00,VWS V13.01,2013-03-14 16:42:00,
2013-03-14 12:47:00,37.6,-4.5,29.62,WNW,302,5.4,5.4,16,0.00,,,0.00,VWS V13.01,2013-03-14 16:47:00,
2013-03-14 12:54:00,38.5,-3.8,29.62,North,350,3.6,8.1,16,0.00,,,0.00,VWS V13.01,2013-03-14 16:54:00,
2013-03-14 12:59:00,38.5,-3.8,29.62,SW,222,12.8,12.8,16,0.00,,,0.00,VWS V13.01,2013-03-14 16:59:00,
2013-03-14 13:04:00,38.5,-3.8,29.62,WSW,239,7.2,8.7,16,0.00,,,0.00,VWS V13.01,2013-03-14 17:04:00,
2013-03-14 13:09:00,38.5,-3.8,29.62,NW,305,6.3,8.1,16,0.00,,,0.00,VWS V13.01,2013-03-14 17:09:00,
2013-03-14 13:14:00,38.7,-3.7,29.62,WNW,282,2.7,5.4,16,0.00,,,0.00,VWS V13.01,2013-03-14 17:14:00,
2013-03-14 13:19:00,38.8,-3.5,29.59,SW,229,3.1,4.9,16,0.00,,,0.00,VWS V13.01,2013-03-14 17:19:00,
2013-03-14 13:24:00,39.2,-3.2,29.59,NW,319,10.1,10.1,16,0.00,,,0.00,VWS V13.01,2013-03-14 17:24:00,
2013-03-14 13:29:00,39.4,-3.1,29.59,NW,304,7.6,8.1,16,0.00,,,0.00,VWS V13.01,2013-03-14 17:29:00,
2013-03-14 13:34:00,39.2,-3.2,29.59,WNW,286,4.9,7.6,16,0.00,,,0.00,VWS V13.01,2013-03-14 17:34:00,
2013-03-14 13:39:00,39.4,-3.1,29.59,WSW,244,8.1,8.1,16,0.00,,,0.00,VWS V13.01,2013-03-14 17:39:00,
2013-03-14 13:44:00,39.7,-2.8,29.59,West,272,5.8,8.7,16,0.00,,,0.00,VWS V13.01,2013-03-14 17:44:00,
2013-03-14 13:49:00,39.9,-2.6,29.59,West,271,4.0,10.1,16,0.00,,,0.00,VWS V13.01,2013-03-14 17:49:00,
2013-03-14 13:54:00,40.3,-2.3,29.59,NW,318,7.6,7.6,16,0.00,,,0.00,VWS V13.01,2013-03-14 17:54:00,
2013-03-14 13:59:00,40.8,-1.9,29.59,West,268,3.6,12.8,16,0.00,,,0.00,VWS V13.01,2013-03-14 17:59:00,
2013-03-14 14:04:00,40.6,-2.0,29.59,NW,306,6.7,8.3,16,0.00,,,0.00,VWS V13.01,2013-03-14 18:04:00,
2013-03-14 14:10:00,41.2,-1.6,29.59,WSW,252,2.7,5.4,16,0.00,,,0.00,VWS V13.01,2013-03-14 18:10:00,
2013-03-14 14:15:00,41.2,-1.6,29.59,West,259,5.8,12.8,16,0.00,,,0.00,VWS V13.01,2013-03-14 18:15:00,
2013-03-14 14:20:00,40.6,-2.0,29.59,NW,313,2.2,6.7,16,0.00,,,0.00,VWS V13.01,2013-03-14 18:20:00,
2013-03-14 14:25:00,41.2,-1.6,29.59,NW,308,7.6,8.7,16,0.00,,,0.00,VWS V13.01,2013-03-14 18:25:00,
2013-03-14 14:30:00,41.9,-1.0,29.59,WSW,253,7.6,8.7,16,0.00,,,0.00,VWS V13.01,2013-03-14 18:30:00,
2013-03-14 14:35:00,42.4,-0.6,29.56,South,180,2.2,5.8,16,0.00,,,0.00,VWS V13.01,2013-03-14 18:35:00,
2013-03-14 14:40:00,42.6,-0.4,29.56,WNW,292,7.6,10.1,16,0.00,,,0.00,VWS V13.01,2013-03-14 18:40:00,
2013-03-14 14:45:00,43.0,-1.5,29.56,SSW,212,8.3,10.1,15,0.00,,,0.00,VWS V13.01,2013-03-14 18:45:00,
2013-03-14 14:50:00,42.6,-0.4,29.56,WSW,238,7.6,11.0,16,0.00,,,0.00,VWS V13.01,2013-03-14 18:50:00,
2013-03-14 14:55:00,42.4,-0.6,29.56,West,265,3.1,5.8,16,0.00,,,0.00,VWS V13.01,2013-03-14 18:55:00,
2013-03-14 15:00:00,43.0,-1.5,29.56,WSW,244,4.0,7.6,15,0.00,,,0.00,VWS V13.01,2013-03-14 19:00:00,
2013-03-14 15:05:00,43.3,-1.2,29.56,WNW,293,10.5,11.0,15,0.00,,,0.00,VWS V13.01,2013-03-14 19:05:00,
2013-03-14 15:10:00,43.3,-1.2,29.56,West,271,4.0,11.0,15,0.00,,,0.00,VWS V13.01,2013-03-14 19:10:00,
2013-03-14 15:15:00,43.2,-1.4,29.56,SW,217,8.1,11.0,15,0.00,,,0.00,VWS V13.01,2013-03-14 19:15:00,
2013-03-14 15:20:00,42.8,-1.6,29.56,WSW,252,8.1,13.2,15,0.00,,,0.00,VWS V13.01,2013-03-14 19:20:00,
2013-03-14 15:25:00,43.0,-1.5,29.56,SW,215,8.3,12.8,15,0.00,,,0.00,VWS V13.01,2013-03-14 19:25:00,
2013-03-14 15:30:00,43.5,-1.1,29.56,WSW,257,10.1,15.4,15,0.00,,,0.00,VWS V13.01,2013-03-14 19:30:00,
2013-03-14 15:35:00,43.5,-1.1,29.53,SW,234,6.3,11.4,15,0.00,,,0.00,VWS V13.01,2013-03-14 19:35:00,
2013-03-14 15:40:00,43.3,-1.2,29.53,WNW,295,7.6,11.0,15,0.00,,,0.00,VWS V13.01,2013-03-14 19:40:00,
2013-03-14 15:45:00,43.5,-1.1,29.53,SW,232,3.6,8.7,15,0.00,,,0.00,VWS V13.01,2013-03-14 19:45:00,
2013-03-14 15:50:00,43.5,-1.1,29.53,West,264,5.4,11.0,15,0.00,,,0.00,VWS V13.01,2013-03-14 19:50:00,
2013-03-14 15:55:00,44.2,-0.5,29.53,West,261,7.6,12.8,15,0.00,,,0.00,VWS V13.01,2013-03-14 19:55:00,
2013-03-14 16:00:00,43.9,-0.8,29.53,WSW,241,8.7,12.3,15,0.00,,,0.00,VWS V13.01,2013-03-14 20:00:00,
2013-03-14 16:05:00,44.1,-0.6,29.53,West,273,3.1,11.0,15,0.00,,,0.00,VWS V13.01,2013-03-14 20:05:00,
2013-03-14 16:10:00,44.2,-0.5,29.53,West,260,12.3,12.8,15,0.00,,,0.00,VWS V13.01,2013-03-14 20:10:00,
2013-03-14 16:15:00,44.2,-0.5,29.53,SW,233,5.8,10.5,15,0.00,,,0.00,VWS V13.01,2013-03-14 20:15:00,
2013-03-14 16:20:00,44.4,-0.3,29.53,WSW,252,6.3,11.0,15,0.00,,,0.00,VWS V13.01,2013-03-14 20:20:00,
2013-03-14 16:25:00,44.4,-0.3,29.53,SW,223,8.1,13.2,15,0.00,,,0.00,VWS V13.01,2013-03-14 20:25:00,
2013-03-14 16:30:00,44.8,0.0,29.53,SSW,206,10.1,13.2,15,0.00,,,0.00,VWS V13.01,2013-03-14 20:30:00,
2013-03-14 16:35:00,45.0,0.1,29.53,SW,221,4.0,8.3,15,0.00,,,0.00,VWS V13.01,2013-03-14 20:35:00,
2013-03-14 16:40:00,45.1,0.3,29.53,West,270,4.0,6.3,15,0.00,,,0.00,VWS V13.01,2013-03-14 20:40:00,
2013-03-14 16:45:00,45.5,0.6,29.53,WNW,288,5.8,10.1,15,0.00,,,0.00,VWS V13.01,2013-03-14 20:45:00,
2013-03-14 16:50:00,45.7,0.7,29.50,NW,308,4.0,5.8,15,0.00,,,0.00,VWS V13.01,2013-03-14 20:50:00,
2013-03-14 16:55:00,45.9,0.8,29.50,NW,311,6.3,10.1,15,0.00,,,0.00,VWS V13.01,2013-03-14 20:55:00,
2013-03-14 17:00:00,46.0,1.0,29.50,NNW,331,6.3,10.5,15,0.00,,,0.00,VWS V13.01,2013-03-14 21:00:00,
2013-03-14 17:05:00,45.9,0.8,29.50,WSW,246,7.2,11.0,15,0.00,,,0.00,VWS V13.01,2013-03-14 21:05:00,
2013-03-14 17:10:00,45.3,0.4,29.50,WNW,291,7.6,8.7,15,0.00,,,0.00,VWS V13.01,2013-03-14 21:10:00,
2013-03-14 17:15:00,45.5,0.6,29.50,WNW,297,6.7,8.7,15,0.00,,,0.00,VWS V13.01,2013-03-14 21:15:00,
2013-03-14 17:20:00,45.3,0.4,29.50,West,278,3.6,10.5,15,0.00,,,0.00,VWS V13.01,2013-03-14 21:20:00,
2013-03-14 17:25:00,45.3,0.4,29.50,North,353,5.8,6.3,15,0.00,,,0.00,VWS V13.01,2013-03-14 21:25:00,
2013-03-14 17:30:00,45.5,0.6,29.50,West,270,2.7,8.1,15,0.00,,,0.00,VWS V13.01,2013-03-14 21:30:00,
2013-03-14 17:35:00,45.5,0.6,29.50,SW,230,7.6,7.6,15,0.00,,,0.00,VWS V13.01,2013-03-14 21:35:00,
2013-03-14 17:40:00,45.3,0.4,29.50,SW,235,6.7,6.7,15,0.00,,,0.00,VWS V13.01,2013-03-14 21:40:00,
2013-03-14 17:45:00,45.0,0.1,29.50,SSW,212,2.7,3.1,15,0.00,,,0.00,VWS V13.01,2013-03-14 21:45:00,
2013-03-14 17:50:00,45.0,0.1,29.50,WNW,285,3.6,3.6,15,0.00,,,0.00,VWS V13.01,2013-03-14 21:50:00,
2013-03-14 17:55:00,45.1,0.3,29.50,WNW,299,5.4,7.6,15,0.00,,,0.00,VWS V13.01,2013-03-14 21:55:00,
2013-03-14 18:00:00,45.1,0.3,29.50,WNW,286,5.8,5.8,15,0.00,,,0.00,VWS V13.01,2013-03-14 22:00:00,
2013-03-14 18:05:00,45.1,0.3,29.50,SW,222,4.9,5.4,15,0.00,,,0.00,VWS V13.01,2013-03-14 22:05:00,
2013-03-14 18:10:00,45.1,0.3,29.50,WSW,250,4.0,5.4,15,0.00,,,0.00,VWS V13.01,2013-03-14 22:10:00,
2013-03-14 18:15:00,45.1,0.3,29.50,WSW,252,7.6,7.6,15,0.00,,,0.00,VWS V13.01,2013-03-14 22:15:00,
2013-03-14 18:20:00,45.1,0.3,29.50,WNW,293,6.3,6.3,15,0.00,,,0.00,VWS V13.01,2013-03-14 22:20:00,
2013-03-14 18:25:00,45.0,0.1,29.50,WNW,283,3.1,5.4,15,0.00,,,0.00,VWS V13.01,2013-03-14 22:25:00,
2013-03-14 18:30:00,45.0,0.1,29.50,West,277,5.8,7.6,15,0.00,,,0.00,VWS V13.01,2013-03-14 22:30:00,
2013-03-14 18:35:00,45.0,0.1,29.50,West,273,5.4,8.1,15,0.00,,,0.00,VWS V13.01,2013-03-14 22:35:00,
2013-03-14 18:40:00,45.0,0.1,29.50,WNW,287,6.3,8.1,15,0.00,,,0.00,VWS V13.01,2013-03-14 22:40:00,
2013-03-14 18:45:00,45.1,0.3,29.50,WNW,295,5.8,5.8,15,0.00,,,0.00,VWS V13.01,2013-03-14 22:45:00,
2013-03-14 18:50:00,45.1,0.3,29.50,WSW,257,2.7,4.0,15,0.00,,,0.00,VWS V13.01,2013-03-14 22:50:00,
2013-03-14 18:55:00,45.1,0.3,29.50,West,281,4.0,4.0,15,0.00,,,0.00,VWS V13.01,2013-03-14 22:55:00,
2013-03-14 19:00:00,45.1,0.3,29.50,West,281,4.9,7.2,15,0.00,,,0.00,VWS V13.01,2013-03-14 23:00:00,
2013-03-14 19:05:00,45.1,0.3,29.50,WNW,288,5.8,5.8,15,0.00,,,0.00,VWS V13.01,2013-03-14 23:05:00,
2013-03-14 19:10:00,45.0,0.1,29.50,West,281,6.3,6.3,15,0.00,,,0.00,VWS V13.01,2013-03-14 23:10:00,
2013-03-14 19:15:00,44.8,0.0,29.50,WNW,282,4.0,8.1,15,0.00,,,0.00,VWS V13.01,2013-03-14 23:15:00,
2013-03-14 19:20:00,44.6,-0.2,29.50,West,277,4.9,5.8,15,0.00,,,0.00,VWS V13.01,2013-03-14 23:20:00,
2013-03-14 19:25:00,44.4,-0.3,29.50,WNW,293,5.4,6.3,15,0.00,,,0.00,VWS V13.01,2013-03-14 23:25:00,
2013-03-14 19:30:00,44.2,-0.5,29.50,WNW,300,3.6,3.6,15,0.00,,,0.00,VWS V13.01,2013-03-14 23:30:00,
2013-03-14 19:35:00,43.9,-0.8,29.50,NW,317,6.3,7.2,15,0.00,,,0.00,VWS V13.01,2013-03-14 23:35:00,
2013-03-14 19:40:00,43.7,-0.9,29.50,NW,306,5.4,5.8,15,0.00,,,0.00,VWS V13.01,2013-03-14 23:40:00,
2013-03-14 19:45:00,43.5,-1.1,29.50,NW,313,4.0,5.8,15,0.00,,,0.00,VWS V13.01,2013-03-14 23:45:00,
2013-03-14 19:50:00,43.3,-1.2,29.50,NNW,338,2.2,5.4,15,0.00,,,0.00,VWS V13.01,2013-03-14 23:50:00,
2013-03-14 19:55:00,43.0,-1.5,29.50,NNW,339,2.2,3.1,15,0.00,,,0.00,VWS V13.01,2013-03-14 23:55:00,
2013-03-14 20:00:00,42.8,-1.6,29.50,NNW,330,2.7,3.1,15,0.00,,,0.00,VWS V13.01,2013-03-15 00:00:00,
2013-03-14 20:05:00,42.6,-0.4,29.50,NNW,330,2.2,2.7,16,0.00,,,0.00,VWS V13.01,2013-03-15 00:05:00,
2013-03-14 20:10:00,42.4,-0.6,29.50,NNW,330,0.0,2.7,16,0.00,,,0.00,VWS V13.01,2013-03-15 00:10:00,
2013-03-14 20:15:00,42.1,-0.9,29.50,NNW,330,0.0,0.0,16,0.00,,,0.00,VWS V13.01,2013-03-15 00:15:00,
2013-03-14 20:20:00,41.7,-1.2,29.50,NNW,330,0.0,0.0,16,0.00,,,0.00,VWS V13.01,2013-03-15 00:20:00,
2013-03-14 20:25:00,41.4,-1.5,29.50,NNW,330,0.0,0.0,16,0.00,,,0.00,VWS V13.01,2013-03-15 00:25:00,
2013-03-14 20:30:00,41.0,-1.7,29.50,NNW,330,0.0,0.0,16,0.00,,,0.00,VWS V13.01,2013-03-15 00:30:00,
2013-03-14 20:35:00,41.0,-1.7,29.50,NNW,330,0.0,0.0,16,0.00,,,0.00,VWS V13.01,2013-03-15 00:35:00,
2013-03-14 20:40:00,41.2,-1.6,29.50,NNW,330,0.0,0.0,16,0.00,,,0.00,VWS V13.01,2013-03-15 00:40:00,
2013-03-14 20:45:00,41.5,-1.3,29.50,NNW,330,0.0,0.0,16,0.00,,,0.00,VWS V13.01,2013-03-15 00:45:00,
2013-03-14 20:50:00,41.9,-1.0,29.47,NNW,332,0.0,2.7,16,0.00,,,0.00,VWS V13.01,2013-03-15 00:50:00,
2013-03-14 20:55:00,41.9,-1.0,29.47,NNW,332,0.0,0.0,16,0.00,,,0.00,VWS V13.01,2013-03-15 00:55:00,
2013-03-14 21:00:00,41.7,-1.2,29.47,NNW,332,0.0,0.0,16,0.00,,,0.00,VWS V13.01,2013-03-15 01:00:00,
2013-03-14 21:05:00,41.4,-1.5,29.47,NNW,332,0.0,0.0,16,0.00,,,0.00,VWS V13.01,2013-03-15 01:05:00,
2013-03-14 21:10:00,41.2,-1.6,29.47,NNW,332,0.0,0.0,16,0.00,,,0.00,VWS V13.01,2013-03-15 01:10:00,
2013-03-14 21:15:00,41.4,-1.5,29.47,NNW,346,0.0,3.1,16,0.00,,,0.00,VWS V13.01,2013-03-15 01:15:00,
2013-03-14 21:20:00,41.5,-1.3,29.50,North,350,2.2,3.1,16,0.00,,,0.00,VWS V13.01,2013-03-15 01:20:00,
2013-03-14 21:25:00,41.5,-1.3,29.50,North,350,0.0,2.2,16,0.00,,,0.00,VWS V13.01,2013-03-15 01:25:00,
2013-03-14 21:30:00,41.2,-1.6,29.50,North,350,2.2,2.7,16,0.00,,,0.00,VWS V13.01,2013-03-15 01:30:00,
2013-03-14 21:35:00,40.3,-2.3,29.50,North,353,0.0,2.7,16,0.00,,,0.00,VWS V13.01,2013-03-15 01:35:00,
2013-03-14 21:40:00,39.7,-2.8,29.50,North,353,0.0,2.7,16,0.00,,,0.00,VWS V13.01,2013-03-15 01:40:00,
2013-03-14 21:45:00,39.2,-3.2,29.50,North,353,0.0,0.0,16,0.00,,,0.00,VWS V13.01,2013-03-15 01:45:00,
2013-03-14 21:50:00,39.2,-3.2,29.47,North,353,0.0,2.7,16,0.00,,,0.00,VWS V13.01,2013-03-15 01:50:00,
2013-03-14 21:55:00,39.2,-3.2,29.47,North,353,0.0,0.0,16,0.00,,,0.00,VWS V13.01,2013-03-15 01:55:00,
2013-03-14 22:00:00,39.2,-3.2,29.47,North,353,0.0,0.0,16,0.00,,,0.00,VWS V13.01,2013-03-15 02:00:00,
2013-03-14 22:05:00,39.0,-3.4,29.50,North,353,0.0,0.0,16,0.00,,,0.00,VWS V13.01,2013-03-15 02:05:00,
2013-03-14 22:10:00,38.8,-3.5,29.50,North,353,0.0,0.0,16,0.00,,,0.00,VWS V13.01,2013-03-15 02:10:00,
2013-03-14 22:15:00,38.8,-3.5,29.50,North,353,0.0,0.0,16,0.00,,,0.00,VWS V13.01,2013-03-15 02:15:00,
2013-03-14 22:20:00,38.8,-3.5,29.50,North,353,2.7,2.7,16,0.00,,,0.00,VWS V13.01,2013-03-15 02:20:00,
2013-03-14 22:25:00,38.7,-3.7,29.50,WSW,242,3.6,5.4,16,0.00,,,0.00,VWS V13.01,2013-03-15 02:25:00,
2013-03-14 22:30:00,39.2,-3.2,29.50,NNW,338,3.1,3.6,16,0.00,,,0.00,VWS V13.01,2013-03-15 02:30:00,
2013-03-14 22:35:00,39.4,-3.1,29.50,NNW,332,2.2,3.1,16,0.00,,,0.00,VWS V13.01,2013-03-15 02:35:00,
2013-03-14 22:40:00,39.6,-2.9,29.50,NNW,334,0.0,3.6,16,0.00,,,0.00,VWS V13.01,2013-03-15 02:40:00,
2013-03-14 22:45:00,39.9,-2.6,29.50,NNW,332,2.7,3.1,16,0.00,,,0.00,VWS V13.01,2013-03-15 02:45:00,
2013-03-14 22:50:00,40.1,-2.5,29.50,NNW,342,3.6,5.4,16,0.00,,,0.00,VWS V13.01,2013-03-15 02:50:00,
2013-03-14 22:55:00,40.6,-2.0,29.50,NNW,330,3.6,5.8,16,0.00,,,0.00,VWS V13.01,2013-03-15 02:55:00,
2013-03-14 23:00:00,40.8,-1.9,29.50,NW,305,4.0,4.0,16,0.00,,,0.00,VWS V13.01,2013-03-15 03:00:00,
2013-03-14 23:05:00,41.0,-1.7,29.50,NNW,330,3.6,5.8,16,0.00,,,0.00,VWS V13.01,2013-03-15 03:05:00,
2013-03-14 23:10:00,41.0,-1.7,29.50,NNW,334,5.4,6.3,16,0.00,,,0.00,VWS V13.01,2013-03-15 03:10:00,
2013-03-14 23:15:00,41.0,-1.7,29.50,NW,324,4.5,5.8,16,0.00,,,0.00,VWS V13.01,2013-03-15 03:15:00,
2013-03-14 23:20:00,41.0,-1.7,29.50,NNW,334,4.9,5.4,16,0.00,,,0.00,VWS V13.01,2013-03-15 03:20:00,
2013-03-14 23:25:00,40.8,-1.9,29.50,NW,313,4.0,5.4,16,0.00,,,0.00,VWS V13.01,2013-03-15 03:25:00,
2013-03-14 23:30:00,40.8,-1.9,29.50,NW,324,4.0,5.4,16,0.00,,,0.00,VWS V13.01,2013-03-15 03:30:00,
2013-03-14 23:35:00,40.8,-1.9,29.50,WNW,297,4.0,5.8,16,0.00,,,0.00,VWS V13.01,2013-03-15 03:35:00,
2013-03-14 23:40:00,40.8,-1.9,29.50,NNW,341,3.6,6.3,16,0.00,,,0.00,VWS V13.01,2013-03-15 03:40:00,
2013-03-14 23:45:00,40.8,-1.9,29.50,NNW,330,3.1,5.4,16,0.00,,,0.00,VWS V13.01,2013-03-15 03:45:00,
2013-03-14 23:50:00,40.8,-1.9,29.50,NW,316,3.1,3.6,16,0.00,,,0.00,VWS V13.01,2013-03-15 03:50:00,
2013-03-14 23:55:00,40.8,-1.9,29.50,WNW,295,5.8,5.8,16,0.00,,,0.00,VWS V13.01,2013-03-15 03:55:00,